TAM3333 SBVT-SBGR

Flight info

Callsign TAM3333
Flight time 1h 10m
Altitude 34000
Route USVAG DCT SIDUR DCT EDMUS
Aircraft A321/M-SDE3FGHIRWY/LB1

Departure

Time 2026-04-26 16:47
Airport Eurico de Aguiar Salles International Airport (SBVT)

Arrival

Time 2026-04-26 17:57
Airport São Paulo/Guarulhos–Governor André Franco Montoro International Airport (SBGR)
Time Latitude Longitude Altitude Speed Heading
2026-04-26 16:12 -20.26576 -40.28158 21 ft 0 kts 262°
2026-04-26 16:33 -20.26574 -40.28144 21 ft 2 kts 262°
2026-04-26 16:33 -20.26573 -40.28134 21 ft 1 kts 263°
2026-04-26 16:34 -20.26569 -40.28119 21 ft 2 kts 236°
2026-04-26 16:34 -20.26559 -40.28106 21 ft 2 kts 216°
2026-04-26 16:34 -20.26545 -40.28099 21 ft 2 kts 193°
2026-04-26 16:34 -20.26531 -40.28097 21 ft 0 kts 174°
2026-04-26 16:35 -20.26525 -40.28099 21 ft 1 kts 170°
2026-04-26 16:35 -20.26524 -40.28099 21 ft 0 kts 171°
2026-04-26 16:37 -20.26526 -40.28099 21 ft 0 kts 171°
2026-04-26 16:38 -20.26531 -40.28098 21 ft 1 kts 171°
2026-04-26 16:38 -20.26542 -40.28096 21 ft 2 kts 171°
2026-04-26 16:38 -20.26564 -40.28092 21 ft 3 kts 171°
2026-04-26 16:38 -20.26592 -40.28087 21 ft 4 kts 170°
2026-04-26 16:39 -20.26621 -40.28075 21 ft 4 kts 148°
2026-04-26 16:39 -20.26640 -40.28048 21 ft 4 kts 113°
2026-04-26 16:39 -20.26630 -40.28019 21 ft 5 kts 55°
2026-04-26 16:39 -20.26617 -40.27983 21 ft 5 kts 87°
2026-04-26 16:40 -20.26614 -40.27959 21 ft 0 kts 78°
2026-04-26 16:42 -20.26613 -40.27959 21 ft 0 kts 78°
2026-04-26 16:42 -20.26612 -40.27951 21 ft 0 kts 78°
2026-04-26 16:45 -20.26612 -40.27950 21 ft 0 kts 78°
2026-04-26 16:45 -20.26610 -40.27941 21 ft 2 kts 78°
2026-04-26 16:45 -20.26604 -40.27913 21 ft 5 kts 78°
2026-04-26 16:46 -20.26592 -40.27865 21 ft 6 kts 51°
2026-04-26 16:46 -20.26544 -40.27858 21 ft 7 kts 351°
2026-04-26 16:46 -20.26380 -40.27883 20 ft 57 kts 352°
2026-04-26 16:46 -20.25731 -40.27979 20 ft 128 kts 352°
2026-04-26 16:47 -20.24668 -40.28141 175 ft 168 kts 351°
2026-04-26 16:47 -20.23488 -40.28271 698 ft 176 kts 356°
2026-04-26 16:47 -20.22299 -40.27936 1271 ft 189 kts 35°
2026-04-26 16:47 -20.21446 -40.26863 1958 ft 188 kts 51°
2026-04-26 16:48 -20.20665 -40.25793 2438 ft 181 kts 45°
2026-04-26 16:48 -20.19779 -40.24862 2795 ft 181 kts 40°
2026-04-26 16:48 -20.18839 -40.23881 2997 ft 197 kts 52°
2026-04-26 16:48 -20.18293 -40.22498 3238 ft 215 kts 84°
2026-04-26 16:49 -20.18575 -40.20898 3487 ft 231 kts 120°
2026-04-26 16:49 -20.19741 -40.19689 3755 ft 244 kts 150°
2026-04-26 16:49 -20.21288 -40.18813 4040 ft 260 kts 154°
2026-04-26 16:49 -20.23015 -40.18044 4337 ft 274 kts 163°
2026-04-26 16:50 -20.24895 -40.17594 4857 ft 279 kts 174°
2026-04-26 16:50 -20.26824 -40.17532 5543 ft 278 kts 185°
2026-04-26 16:50 -20.28731 -40.17863 6222 ft 277 kts 195°
2026-04-26 16:50 -20.30523 -40.18612 6842 ft 278 kts 213°
2026-04-26 16:51 -20.31852 -40.20113 7421 ft 281 kts 236°
2026-04-26 16:51 -20.32883 -40.21862 7988 ft 284 kts 237°
2026-04-26 16:51 -20.33954 -40.23668 8539 ft 288 kts 236°
2026-04-26 16:51 -20.35038 -40.25474 9129 ft 292 kts 236°
2026-04-26 16:52 -20.36139 -40.27291 9656 ft 294 kts 236°
2026-04-26 16:52 -20.36887 -40.28520 10023 ft 296 kts 236°
2026-04-26 16:52 -20.38404 -40.31004 10459 ft 310 kts 236°
2026-04-26 16:52 -20.39610 -40.32976 10714 ft 322 kts 236°
2026-04-26 16:53 -20.40844 -40.34995 11183 ft 328 kts 236°
2026-04-26 16:53 -20.42088 -40.37033 11715 ft 330 kts 236°
2026-04-26 16:53 -20.43352 -40.39104 12256 ft 331 kts 236°
2026-04-26 16:53 -20.44600 -40.41149 12734 ft 333 kts 236°
2026-04-26 16:54 -20.45874 -40.43237 13215 ft 335 kts 236°
2026-04-26 16:54 -20.47127 -40.45290 13686 ft 336 kts 236°
2026-04-26 16:54 -20.48420 -40.47406 14127 ft 338 kts 237°
2026-04-26 16:54 -20.49705 -40.49511 14544 ft 340 kts 237°
2026-04-26 16:55 -20.50998 -40.51633 14988 ft 342 kts 237°
2026-04-26 16:55 -20.52298 -40.53767 15391 ft 344 kts 238°
2026-04-26 16:55 -20.53602 -40.55909 15811 ft 346 kts 238°
2026-04-26 16:55 -20.54910 -40.58058 16208 ft 348 kts 238°
2026-04-26 16:56 -20.57566 -40.62425 16991 ft 352 kts 238°
2026-04-26 16:56 -20.58898 -40.64616 17362 ft 354 kts 238°
2026-04-26 16:56 -20.60242 -40.66830 17733 ft 356 kts 239°
2026-04-26 16:57 -20.61590 -40.69050 18078 ft 358 kts 239°
2026-04-26 16:57 -20.62957 -40.71303 18434 ft 360 kts 238°
2026-04-26 16:57 -20.65694 -40.75816 19124 ft 365 kts 238°
2026-04-26 16:58 -20.67081 -40.78102 19457 ft 367 kts 238°
2026-04-26 16:58 -20.67993 -40.79606 19679 ft 368 kts 238°
2026-04-26 16:58 -20.71301 -40.84994 20451 ft 373 kts 238°
2026-04-26 16:59 -20.72738 -40.87288 20768 ft 375 kts 238°
2026-04-26 16:59 -20.75639 -40.91921 21395 ft 379 kts 238°
2026-04-26 17:00 -20.78598 -40.96659 22000 ft 384 kts 238°
2026-04-26 17:00 -20.81563 -41.01414 22593 ft 388 kts 238°
2026-04-26 17:00 -20.83070 -41.03833 22922 ft 389 kts 238°
2026-04-26 17:01 -20.84568 -41.06239 23259 ft 391 kts 238°
2026-04-26 17:01 -20.86072 -41.08656 23596 ft 392 kts 238°
2026-04-26 17:01 -20.87578 -41.11077 23932 ft 393 kts 238°
2026-04-26 17:01 -20.89088 -41.13506 24279 ft 393 kts 238°
2026-04-26 17:02 -20.90602 -41.15943 24605 ft 395 kts 238°
2026-04-26 17:02 -20.92120 -41.18387 24921 ft 396 kts 238°
2026-04-26 17:02 -20.93644 -41.20840 25239 ft 397 kts 238°
2026-04-26 17:02 -20.95176 -41.23307 25548 ft 399 kts 238°
2026-04-26 17:03 -20.96723 -41.25801 25864 ft 400 kts 238°
2026-04-26 17:03 -20.98262 -41.28284 26181 ft 401 kts 238°
2026-04-26 17:03 -20.99795 -41.30756 26483 ft 402 kts 238°
2026-04-26 17:03 -21.01342 -41.33256 26779 ft 404 kts 238°
2026-04-26 17:04 -21.02889 -41.35753 27055 ft 406 kts 238°
2026-04-26 17:04 -21.04467 -41.38303 27341 ft 407 kts 238°
2026-04-26 17:04 -21.06022 -41.40815 27647 ft 408 kts 238°
2026-04-26 17:04 -21.07599 -41.43363 27955 ft 409 kts 238°
2026-04-26 17:05 -21.09153 -41.45877 28235 ft 410 kts 238°
2026-04-26 17:05 -21.10747 -41.48456 28514 ft 412 kts 238°
2026-04-26 17:05 -21.12326 -41.51013 28776 ft 413 kts 238°
2026-04-26 17:05 -21.13914 -41.53587 29022 ft 415 kts 238°
2026-04-26 17:06 -21.15502 -41.56159 29268 ft 417 kts 238°
2026-04-26 17:06 -21.17100 -41.58749 29512 ft 419 kts 238°
2026-04-26 17:06 -21.18704 -41.61351 29760 ft 420 kts 238°
2026-04-26 17:06 -21.20312 -41.63959 30026 ft 421 kts 238°
2026-04-26 17:07 -21.21930 -41.66586 30283 ft 422 kts 238°
2026-04-26 17:07 -21.23557 -41.69230 30518 ft 424 kts 238°
2026-04-26 17:07 -21.25170 -41.71851 30753 ft 425 kts 238°
2026-04-26 17:07 -21.26811 -41.74518 30993 ft 427 kts 238°
2026-04-26 17:08 -21.28436 -41.77163 31275 ft 427 kts 238°
2026-04-26 17:08 -21.30068 -41.79818 31602 ft 426 kts 238°
2026-04-26 17:08 -21.31702 -41.82477 31956 ft 424 kts 238°
2026-04-26 17:08 -21.33303 -41.85085 32278 ft 422 kts 239°
2026-04-26 17:09 -21.34919 -41.87719 32550 ft 422 kts 239°
2026-04-26 17:09 -21.36003 -41.89488 32699 ft 423 kts 239°
2026-04-26 17:09 -21.38183 -41.93043 32996 ft 424 kts 239°
2026-04-26 17:09 -21.39805 -41.95689 33238 ft 425 kts 239°
2026-04-26 17:10 -21.41408 -41.98307 33464 ft 426 kts 239°
2026-04-26 17:10 -21.43038 -42.00969 33692 ft 426 kts 239°
2026-04-26 17:10 -21.44674 -42.03646 33923 ft 427 kts 239°
2026-04-26 17:10 -21.46300 -42.06305 33963 ft 428 kts 239°
2026-04-26 17:11 -21.49570 -42.11657 33963 ft 428 kts 239°
2026-04-26 17:11 -21.52838 -42.17011 33957 ft 428 kts 239°
2026-04-26 17:12 -21.57720 -42.25017 33951 ft 427 kts 239°
2026-04-26 17:13 -21.62606 -42.33041 33956 ft 427 kts 239°
2026-04-26 17:14 -21.67475 -42.41051 33964 ft 426 kts 239°
2026-04-26 17:14 -21.72336 -42.49059 33966 ft 425 kts 239°
2026-04-26 17:15 -21.77204 -42.57090 33974 ft 425 kts 239°
2026-04-26 17:16 -21.80423 -42.62409 33985 ft 425 kts 239°
2026-04-26 17:16 -21.83645 -42.67734 33993 ft 425 kts 240°
2026-04-26 17:17 -21.86874 -42.73077 33997 ft 425 kts 240°
2026-04-26 17:17 -21.90096 -42.78415 34001 ft 425 kts 240°
2026-04-26 17:18 -21.93319 -42.83758 34002 ft 424 kts 240°
2026-04-26 17:18 -21.96505 -42.89048 34000 ft 423 kts 240°
2026-04-26 17:19 -22.01308 -42.97031 33994 ft 422 kts 240°
2026-04-26 17:19 -22.04492 -43.02330 34000 ft 422 kts 240°
2026-04-26 17:20 -22.07183 -43.06813 34008 ft 423 kts 240°
2026-04-26 17:20 -22.10918 -43.13037 34013 ft 423 kts 240°
2026-04-26 17:21 -22.14114 -43.18372 34015 ft 423 kts 240°
2026-04-26 17:21 -22.17286 -43.23673 34004 ft 422 kts 240°
2026-04-26 17:22 -22.20482 -43.29017 34004 ft 422 kts 240°
2026-04-26 17:22 -22.23668 -43.34351 33996 ft 422 kts 240°
2026-04-26 17:23 -22.26826 -43.39643 33989 ft 422 kts 240°
2026-04-26 17:23 -22.30013 -43.44987 33976 ft 422 kts 240°
2026-04-26 17:24 -22.33175 -43.50294 33964 ft 421 kts 240°
2026-04-26 17:24 -22.36352 -43.55637 33972 ft 421 kts 240°
2026-04-26 17:25 -22.39514 -43.60957 33986 ft 421 kts 240°
2026-04-26 17:25 -22.42688 -43.66301 34004 ft 421 kts 241°
2026-04-26 17:26 -22.45841 -43.71618 34008 ft 420 kts 241°
2026-04-26 17:26 -22.48993 -43.76936 34010 ft 420 kts 241°
2026-04-26 17:27 -22.52147 -43.82266 34007 ft 420 kts 241°
2026-04-26 17:27 -22.55295 -43.87588 33979 ft 420 kts 241°
2026-04-26 17:28 -22.58446 -43.92921 33965 ft 420 kts 241°
2026-04-26 17:28 -22.61585 -43.98240 33954 ft 420 kts 241°
2026-04-26 17:29 -22.64201 -44.02677 33962 ft 419 kts 241°
2026-04-26 17:29 -22.67887 -44.08937 33982 ft 419 kts 241°
2026-04-26 17:30 -22.71035 -44.14290 34014 ft 419 kts 241°
2026-04-26 17:30 -22.74109 -44.19651 34036 ft 418 kts 244°
2026-04-26 17:31 -22.76714 -44.25240 34057 ft 415 kts 249°
2026-04-26 17:31 -22.78920 -44.31009 34071 ft 415 kts 251°
2026-04-26 17:32 -22.81085 -44.36772 34065 ft 414 kts 251°
2026-04-26 17:32 -22.82175 -44.39677 33872 ft 414 kts 251°
2026-04-26 17:32 -22.83252 -44.42547 33585 ft 411 kts 251°
2026-04-26 17:33 -22.84330 -44.45421 33295 ft 409 kts 250°
2026-04-26 17:33 -22.85391 -44.48248 33010 ft 407 kts 250°
2026-04-26 17:33 -22.86453 -44.51082 32742 ft 406 kts 250°
2026-04-26 17:34 -22.88578 -44.56757 31986 ft 408 kts 250°
2026-04-26 17:34 -22.89642 -44.59605 31391 ft 408 kts 250°
2026-04-26 17:34 -22.90702 -44.62442 30735 ft 409 kts 250°
2026-04-26 17:34 -22.91772 -44.65306 30217 ft 404 kts 250°
2026-04-26 17:35 -22.92816 -44.68097 29786 ft 399 kts 250°
2026-04-26 17:35 -22.93857 -44.70881 29340 ft 394 kts 250°
2026-04-26 17:35 -22.94882 -44.73630 28886 ft 389 kts 250°
2026-04-26 17:35 -22.95887 -44.76321 28431 ft 385 kts 250°
2026-04-26 17:36 -22.96883 -44.78994 27965 ft 381 kts 250°
2026-04-26 17:36 -22.97874 -44.81652 27497 ft 377 kts 250°
2026-04-26 17:36 -22.98842 -44.84252 27033 ft 374 kts 251°
2026-04-26 17:36 -22.99812 -44.86862 26565 ft 370 kts 251°
2026-04-26 17:37 -23.00775 -44.89454 26102 ft 367 kts 251°
2026-04-26 17:37 -23.01715 -44.91985 25643 ft 364 kts 251°
2026-04-26 17:37 -23.02663 -44.94539 25187 ft 361 kts 251°
2026-04-26 17:38 -23.04515 -44.99533 24284 ft 356 kts 251°
2026-04-26 17:38 -23.05432 -45.02008 23833 ft 353 kts 251°
2026-04-26 17:38 -23.06349 -45.04482 23382 ft 351 kts 251°
2026-04-26 17:38 -23.07253 -45.06924 22938 ft 349 kts 251°
2026-04-26 17:39 -23.08151 -45.09353 22498 ft 347 kts 251°
2026-04-26 17:39 -23.09050 -45.11784 22071 ft 345 kts 251°
2026-04-26 17:39 -23.09938 -45.14194 21648 ft 344 kts 251°
2026-04-26 17:39 -23.10835 -45.16625 21210 ft 343 kts 251°
2026-04-26 17:40 -23.11717 -45.19018 20765 ft 343 kts 251°
2026-04-26 17:40 -23.12309 -45.20625 20473 ft 342 kts 251°
2026-04-26 17:40 -23.13481 -45.23803 19879 ft 341 kts 251°
2026-04-26 17:40 -23.14366 -45.26208 19426 ft 341 kts 250°
2026-04-26 17:41 -23.15244 -45.28591 18961 ft 340 kts 250°
2026-04-26 17:41 -23.16119 -45.30969 18517 ft 339 kts 250°
2026-04-26 17:41 -23.16990 -45.33337 18054 ft 338 kts 250°
2026-04-26 17:41 -23.17856 -45.35692 17602 ft 338 kts 250°
2026-04-26 17:42 -23.18676 -45.38103 17137 ft 336 kts 253°
2026-04-26 17:42 -23.19336 -45.40520 16877 ft 333 kts 256°
2026-04-26 17:42 -23.19891 -45.42962 16894 ft 335 kts 257°
2026-04-26 17:42 -23.20440 -45.45432 16877 ft 336 kts 257°
2026-04-26 17:43 -23.20988 -45.47907 16513 ft 338 kts 257°
2026-04-26 17:43 -23.21533 -45.50373 16032 ft 338 kts 257°
2026-04-26 17:43 -23.22084 -45.52858 15573 ft 337 kts 258°
2026-04-26 17:43 -23.22637 -45.55324 15077 ft 337 kts 256°
2026-04-26 17:44 -23.23283 -45.57746 14861 ft 329 kts 255°
2026-04-26 17:44 -23.23939 -45.60121 14890 ft 329 kts 255°
2026-04-26 17:44 -23.24598 -45.62506 14900 ft 330 kts 255°
2026-04-26 17:44 -23.25258 -45.64891 14824 ft 331 kts 255°
2026-04-26 17:45 -23.25924 -45.67303 14383 ft 331 kts 255°
2026-04-26 17:45 -23.26581 -45.69687 13900 ft 331 kts 255°
2026-04-26 17:45 -23.27245 -45.72093 13405 ft 332 kts 255°
2026-04-26 17:45 -23.27797 -45.74501 12928 ft 330 kts 264°
2026-04-26 17:46 -23.27955 -45.76965 12533 ft 327 kts 269°
2026-04-26 17:46 -23.28020 -45.79444 12140 ft 323 kts 269°
2026-04-26 17:46 -23.28090 -45.81859 11799 ft 318 kts 269°
2026-04-26 17:46 -23.28176 -45.84259 11457 ft 314 kts 269°
2026-04-26 17:47 -23.28275 -45.86610 11125 ft 309 kts 269°
2026-04-26 17:47 -23.28345 -45.88144 10906 ft 306 kts 268°
2026-04-26 17:47 -23.28491 -45.91189 10447 ft 302 kts 268°
2026-04-26 17:47 -23.28605 -45.93483 10213 ft 293 kts 269°
2026-04-26 17:48 -23.28714 -45.95640 10119 ft 280 kts 269°
2026-04-26 17:48 -23.28819 -45.97710 9990 ft 270 kts 269°
2026-04-26 17:48 -23.28919 -45.99736 9596 ft 271 kts 269°
2026-04-26 17:48 -23.29021 -46.01761 9187 ft 268 kts 269°
2026-04-26 17:49 -23.29122 -46.03779 8803 ft 265 kts 269°
2026-04-26 17:49 -23.29223 -46.05763 8427 ft 263 kts 269°
2026-04-26 17:49 -23.29322 -46.07732 8076 ft 261 kts 269°
2026-04-26 17:49 -23.29420 -46.09695 7710 ft 259 kts 269°
2026-04-26 17:50 -23.29518 -46.11650 7368 ft 258 kts 269°
2026-04-26 17:50 -23.29614 -46.13593 7024 ft 258 kts 269°
2026-04-26 17:50 -23.29711 -46.15545 6663 ft 258 kts 269°
2026-04-26 17:50 -23.29808 -46.17466 6466 ft 249 kts 269°
2026-04-26 17:51 -23.29900 -46.19292 6409 ft 238 kts 269°
2026-04-26 17:51 -23.29988 -46.21062 6333 ft 226 kts 270°
2026-04-26 17:51 -23.30084 -46.22747 6180 ft 223 kts 265°
2026-04-26 17:51 -23.30682 -46.24277 5916 ft 231 kts 228°
2026-04-26 17:52 -23.32100 -46.25153 5683 ft 239 kts 201°
2026-04-26 17:52 -23.33688 -46.25721 5423 ft 238 kts 203°
2026-04-26 17:52 -23.35252 -46.26329 5135 ft 236 kts 204°
2026-04-26 17:52 -23.36771 -46.26974 4842 ft 233 kts 213°
2026-04-26 17:53 -23.37897 -46.28140 4548 ft 218 kts 244°
2026-04-26 17:53 -23.38428 -46.29584 4556 ft 193 kts 257°
2026-04-26 17:53 -23.38766 -46.30905 4529 ft 171 kts 259°
2026-04-26 17:54 -23.39350 -46.33241 4499 ft 156 kts 259°
2026-04-26 17:54 -23.39648 -46.34372 4299 ft 155 kts 258°
2026-04-26 17:54 -23.39951 -46.35496 4116 ft 155 kts 258°
2026-04-26 17:54 -23.40253 -46.36608 3925 ft 154 kts 258°
2026-04-26 17:55 -23.40558 -46.37733 3736 ft 154 kts 258°
2026-04-26 17:55 -23.40876 -46.38850 3532 ft 154 kts 257°
2026-04-26 17:55 -23.41177 -46.39947 3378 ft 152 kts 259°
2026-04-26 17:55 -23.41473 -46.41069 3225 ft 153 kts 259°
2026-04-26 17:56 -23.41767 -46.42190 3028 ft 154 kts 260°
2026-04-26 17:56 -23.42383 -46.44434 2582 ft 153 kts 258°
2026-04-26 17:57 -23.42912 -46.46435 2452 ft 101 kts 253°
2026-04-26 17:57 -23.43059 -46.46991 2453 ft 49 kts 261°
2026-04-26 17:57 -23.43052 -46.47195 2454 ft 9 kts 284°
2026-04-26 17:57 -23.43034 -46.47268 2453 ft 10 kts 284°
2026-04-26 17:58 -23.43035 -46.47529 2452 ft 9 kts 254°
2026-04-26 17:59 -23.43073 -46.47668 2453 ft 9 kts 253°
2026-04-26 17:59 -23.43087 -46.47719 2453 ft 4 kts 253°
2026-04-26 17:59 -23.43094 -46.47758 2453 ft 5 kts 275°
2026-04-26 17:59 -23.43066 -46.47794 2452 ft 7 kts 336°
2026-04-26 18:00 -23.43009 -46.47813 2451 ft 5 kts 348°
2026-04-26 18:00 -23.42966 -46.47828 2450 ft 7 kts 322°
2026-04-26 18:00 -23.42935 -46.47870 2450 ft 2 kts 301°
2026-04-26 18:00 -23.42923 -46.47890 2450 ft 3 kts 301°
2026-04-26 18:01 -23.42908 -46.47917 2450 ft 2 kts 303°
2026-04-26 18:01 -23.42901 -46.47928 2450 ft 0 kts 302°
2026-04-26 18:01 -23.42897 -46.47936 2450 ft 1 kts 303°
2026-04-26 18:01 -23.42893 -46.47942 2450 ft 0 kts 303°